This demonstration page uses our WeatherBlox Daily Observations layout. Learn more.

39.92423, -83.80882

Hourly Observations for February 26, 2020

Temp ( °F °C ) Dew Point ( °F °C ) Humidity (%) Winds ( mph kmh ) Pressure ( in mb ) Visibility ( mi km ) Precip ( " mm )
12:56 am 00:56 Cloudy with Mist and Fog 36 2.2 36 2.2 100 100 NNE 6 9 29.89 1012 5 8.0467 0 0
1:56 am 01:56 Cloudy with Mist and Fog 35 1.7 35 1.7 100 100 NNE 7 11 29.9 1012 3 4.82802 0 0
2:56 am 02:56 Cloudy with Mist and Fog 35 1.7 35 1.7 100 100 NNE 7 11 29.88 1012 5 8.0467 0 0
3:56 am 03:56 Cloudy with Mist and Fog 34 1.1 34 1.1 100 100 NE 6 9 29.89 1012 3 4.82802 0 0
4:09 am 04:09 Cloudy with Light Wintry Mix 34 1 34 1 100 100 NNE 6 9 29.91 1013 2 3.21868 0 0
4:42 am 04:42 Cloudy with Light Wintry Mix 34 1 34 1 100 100 N 7 11 29.91 1013 1.75 2.816345 0 0
4:53 am 04:53 Cloudy with Light Wintry Mix 34 1 34 1 100 100 N 6 9 29.92 1013 2 3.21868 0 0
4:56 am 04:56 Cloudy with Light Wintry Mix 34 1.1 34 1.1 100 100 N 6 9 29.9 1012 1.75 2.816345 0 0
5:03 am 05:03 Cloudy with Light Wintry Mix 34 1 34 1 100 100 N 8 13 29.92 1013 2 3.21868 0 0
5:56 am 05:56 Cloudy with Mist and Fog 34 1.1 34 1.1 100 100 NNE 5 7 29.9 1013 2.5 4.02335 0 0
6:16 am 06:16 Cloudy with Mist and Fog 34 1 34 1 100 100 NE 5 7 29.9 1012 1.75 2.816345 0 0
6:28 am 06:28 Cloudy with Mist and Fog 34 1 34 1 100 100 NE 7 11 29.89 1012 1.75 2.816345 0 0
6:56 am 06:56 Cloudy with Mist and Fog 33 0.6 33 0.6 100 100 NNE 6 9 29.88 1012 1.75 2.816345 0 0
7:02 am 07:02 Cloudy with Mist and Fog 34 1 34 1 100 100 NE 6 9 29.91 1013 3 4.82802 0 0
7:20 am 07:20 Cloudy with Mist and Fog 34 1 34 1 100 100 NNE 6 9 29.9 1012 2 3.21868 0 0
7:33 am 07:33 Cloudy with Light Rain 34 1 34 1 100 100 NNE 6 9 29.9 1012 1.25 2.011675 0 0
7:50 am 07:50 Cloudy with Light Rain 34 1 34 1 100 100 NNE 6 9 29.91 1013 3 4.82802 0 0
7:51 am 07:51 Cloudy with Light Rain 33 0.6 33 0.6 100 100 NNE 5 7 29.89 1012 3 4.82802 0 0
8:56 am 08:56 Cloudy with Mist and Fog 33 0.6 33 0.6 100 100 NNE 5 7 29.88 1012 4 6.43736 0 0
9:14 am 09:14 Cloudy with Mist and Fog 34 1 34 1 100 100 NE 5 7 29.9 1012 2 3.21868 0 0
9:56 am 09:56 Cloudy with Mist and Fog 33 0.6 33 0.6 100 100 ENE 3 6 29.88 1012 1.75 2.816345 0 0
10:05 am 10:05 Cloudy with Light Wintry Mix 34 1 34 1 100 100 NNE 3 6 29.88 1012 2.5 4.02335 0 0
10:16 am 10:16 Cloudy with Light Rain 34 1 34 1 100 100 ENE 5 7 29.88 1012 3 4.82802 0 0
10:25 am 10:25 Cloudy with Light Snow 34 1 34 1 100 100 NE 5 7 29.88 1012 2 3.21868 0 0
10:37 am 10:37 Cloudy with Light Snow 34 1 34 1 100 100 NE 6 9 29.87 1011 3 4.82802 0 0
10:56 am 10:56 Cloudy with Light Snow 34 1.1 34 1.1 100 100 ENE 6 9 29.85 1011 3 4.82802 0 0
11:07 am 11:07 Cloudy with Light Snow 34 1 34 1 100 100 NE 8 13 29.84 1010 2 3.21868 0 0
11:24 am 11:24 Cloudy with Light Rain 34 1 34 1 100 100 NNE 5 7 29.85 1011 5 8.0467 0 0
11:48 am 11:48 Cloudy with Light Snow 34 1 34 1 100 100 Calm 29.86 1011 2 3.21868 0 0
11:56 am 11:56 Cloudy with Light Snow 33 0.6 33 0.6 100 100 N 3 6 29.83 1010 1.25 2.011675 0 0
12:03 pm 12:03 Cloudy with Light Snow 34 1 34 1 100 100 N 5 7 29.84 1010 1 1.60934 0 0
12:10 pm 12:10 Cloudy with Light Snow 34 1 34 1 100 100 N 3 6 29.84 1010 0.75 1.207005 0 0
12:32 pm 12:32 Cloudy with Snow 34 1 34 1 100 100 WNW 3 6 29.84 1010 0.5 0.80467 0 0
12:40 pm 12:40 Cloudy with Light Snow 34 1 34 1 100 100 WNW 5 7 29.84 1010 0.75 1.207005 0 0
12:47 pm 12:47 Cloudy with Light Snow 34 1 34 1 100 100 WNW 6 9 29.83 1010 0.75 1.207005 0 0
12:56 pm 12:56 Cloudy with Light Snow 33 0.6 33 0.6 100 100 WNW 6 9 29.82 1010 0.75 1.207005 0 0
1:08 pm 13:08 Cloudy with Light Snow 32 0 32 0 100 100 WNW 7 11 29.83 1010 1 1.60934 0 0
1:16 pm 13:16 Cloudy with Light Snow 32 0 32 0 100 100 NW 7 11 29.83 1010 0.75 1.207005 0 0
1:56 pm 13:56 Cloudy with Snow 32 0 32 0 100 100 NNW 6 9 29.77 1008 0.5 0.80467 0 0
2:06 pm 14:06 Cloudy with Light Snow 32 0 32 0 100 100 NW 6 9 29.81 1010 1 1.60934 0 0
2:15 pm 14:15 Cloudy with Light Snow 34 1 34 1 100 100 NW 8 13 29.8 1009 1.75 2.816345 0 0
2:22 pm 14:22 Cloudy with Light Snow 34 1 34 1 100 100 NW 7 11 29.81 1009 2 3.21868 0 0
2:35 pm 14:35 Cloudy with Light Snow 34 1 34 1 100 100 NW 7 11 29.8 1009 2.5 4.02335 0 0
2:56 pm 14:56 Cloudy with Light Snow 33 0.6 33 0.6 100 100 NW 9 15 29.78 1008 2.5 4.02335 0 0
3:18 pm 15:18 Cloudy with Light Snow 34 1 34 1 100 100 WNW 9 15 29.81 1009 1.75 2.816345 0 0
3:35 pm 15:35 Cloudy with Light Snow 34 1 34 1 100 100 WNW 9 15 29.81 1009 1.5 2.41401 0 0
3:53 pm 15:53 Cloudy with Light Snow 32 0 32 0 100 100 WNW 15 24 29.81 1010 1.25 2.011675 0 0
3:56 pm 15:56 Cloudy with Light Snow 32 0 32 0 100 100 WNW 16 26 29.8 1009 1.5 2.41401 0 0
4:10 pm 16:10 Cloudy with Light Snow 32 0 32 0 100 100 WNW 9 15 29.82 1010 1.25 2.011675 0 0
4:12 pm 16:12 Cloudy with Light Snow 32 0 32 0 100 100 WNW 10 17 29.82 1010 1 1.60934 0 0
4:43 pm 16:43 Cloudy with Light Snow 32 0 32 0 100 100 WNW 10 17 29.83 1010 1.25 2.011675 0 0
4:52 pm 16:52 Cloudy with Light Snow 32 0 32 0 100 100 WNW 12 19 29.83 1010 0.75 1.207005 0 0
4:56 pm 16:56 Cloudy with Light Snow 32 0 32 0 100 100 WNW 13 20 29.82 1010 0.75 1.207005 0 0
5:14 pm 17:14 Cloudy with Light Snow 30 -1 30 -1 100 100 NW 13 20 29.85 1011 1.25 2.011675 0 0
5:29 pm 17:29 Cloudy with Light Snow 30 -1 30 -1 100 100 WNW 14 22 29.85 1011 2 3.21868 0 0
5:41 pm 17:41 Cloudy with Light Snow 30 -1 30 -1 100 100 WNW 13 20 29.86 1011 2.5 4.02335 0 0
5:56 pm 17:56 Cloudy with Light Snow 31 -0.6 31 -0.6 100 100 WNW 17 28 29.84 1010 3 4.82802 0 0
6:56 pm 18:56 Cloudy with Light Snow 29 -1.7 29 -1.7 100 100 WNW 16 26 29.86 1011 5 8.0467 0 0
7:23 pm 19:23 Windy with Snow Likely 28 -2 28 -2 100 100 NW 20 31 29.9 1013 2 3.21868 0.001 0.001
7:30 pm 19:30 Cloudy with Light Snow 28 -2 28 -2 100 100 NW 16 26 29.91 1013 1.25 2.011675 0.001 0.001
7:38 pm 19:38 Cloudy with Light Snow 28 -2 28 -2 100 100 NW 18 30 29.91 1013 2 3.21868 0.03 0.762
7:49 pm 19:49 Cloudy with Light Snow 28 -2 27 -3 93 93 WNW 18 30 29.91 1013 5 8.0467 0.03 0.762
7:56 pm 19:56 Cloudy with Light Snow 28 -2.2 27 -2.8 96 96 WNW 16 26 29.89 1012 6 9.65604 0.03 0.762
8:56 pm 20:56 Cloudy with Light Snow 27 -2.8 25 -3.9 92 92 WNW 15 24 29.92 1013 9 14.48406 0.001 0.001
9:06 pm 21:06 Cloudy with Light Snow 27 -3 27 -3 100 100 WNW 17 28 29.96 1014 6 9.65604 0.001 0.001
9:37 pm 21:37 Cloudy with Light Snow 27 -3 25 -4 93 93 NW 18 30 29.98 1015 2 3.21868 0.001 0.001
9:56 pm 21:56 Cloudy with Light Snow 26 -3.3 25 -3.9 96 96 WNW 12 19 29.96 1014 2.5 4.02335 0.001 0.001
10:03 pm 22:03 Cloudy with Light Snow 27 -3 25 -4 93 93 WNW 14 22 29.99 1015 4 6.43736 0.001 0.001
10:43 pm 22:43 Cloudy with Light Snow 27 -3 25 -4 93 93 WNW 10 17 29.99 1015 4 6.43736 0.001 0.001
10:56 pm 22:56 Cloudy with Light Snow 26 -3.3 26 -3.3 100 100 WNW 12 19 29.96 1015 4 6.43736 0.001 0.001
11:35 pm 23:35 Windy with Snow Likely 27 -3 25 -4 93 93 WNW 21 33 30 1016 9 14.48406 0.001 0.001
11:56 pm 23:56 Cloudy with Light Snow 26 -3.3 24 -4.4 92 92 WNW 17 28 29.97 1015 7 11.26538 0.001 0.001

Powered by AerisWeather